Regional Weather Roundup
Issued by NWS

Home | Current Version | Previous Version | Text Only | Print | Product List | Glossary Off
Versions: 1 2 3 4 5 6 7 8 9 10 11 12 13 14 15 16 17 18 19 20 21 22 23 24 25 26 27 28 29 30 31 32 33 34 35 36 37 38 39 40 41 42 43 44 45 46 47 48 49 50

000
ASUS43 KOAX 272102
RWRNE

WEATHER ROUNDUP FOR NEBRASKA
NATIONAL WEATHER SERVICE OMAHA NE
400 PM CDT MON APR 27 2015

NOTES: SATELLITE DATA IS BEING USED TO AUGMENT CLOUD COVER ABOVE
       12000 FEET.
       "FAIR" INDICATES FEW OR NO CLOUDS BELOW 12,000 FEET WITH NO
       SIGNIFICANT WEATHER AND/OR OBSTRUCTIONS TO VISIBILITY.

  * THESE STATIONS DO NOT REPORT WEATHER SUCH AS RAIN...SNOW OR FOG.

NEZ001>004-019>022-054>056-272200-
NEBRASKA PANHANDLE

CITY           SKY/WX    TMP DP  RH WIND       PRES   REMARKS
SCOTTSBLUFF    CLOUDY    56  41  57 W9        30.27S
ALLIANCE       PTSUNNY   59  34  39 CALM      30.24F
CHADRON        PTSUNNY   54  43  66 N10       30.28F
KIMBALL        PTSUNNY   51  34  51 N8        30.25F
SIDNEY         PTSUNNY   56  38  50 N8        30.26S
$$

NEZ057>060-069>072-079>082-272200-
SOUTHWEST NEBRASKA

CITY           SKY/WX    TMP DP  RH WIND       PRES   REMARKS
NORTH PLATTE   PTSUNNY   64  31  28 N9G21     30.19F
IMPERIAL       CLOUDY    60  31  33 NE15      30.20F
MCCOOK         PTSUNNY   65  33  30 NE7       30.17F
$$

NEZ005>010-023>029-035>040-094-272200-
NORTH CENTRAL NEBRASKA

CITY           SKY/WX    TMP DP  RH WIND       PRES   REMARKS
VALENTINE      PTSUNNY   67  31  26 NE7       30.21F
AINSWORTH      MOSUNNY   67  31  26 NE7       30.20F
BROKEN BOW     MOSUNNY   68  32  26 NE10      30.17F
ORD            SUNNY     68  30  24 NE6       30.15F
$$

NEZ041-046>049-061>064-073>077-083>087-272200-
SOUTH CENTRAL NEBRASKA

CITY           SKY/WX    TMP DP  RH WIND       PRES   REMARKS
GRAND ISLAND   MOSUNNY   66  29  24 NE12G21   30.16F
AURORA         MOSUNNY   65  31  28 NE16      30.16F
HASTINGS       PTSUNNY   63  34  33 NE15      30.16F
KEARNEY *      PTSUNNY   64  36  34 NE14      30.17F
$$

NEZ011>018-030>034-042>045-272200-
NORTHEAST NEBRASKA

CITY           SKY/WX    TMP DP  RH WIND       PRES   REMARKS
NORFOLK        SUNNY     71  28  20 NE10      30.15F
BLAIR          SUNNY     67  27  22 N5        30.13F
COLUMBUS *     SUNNY     66  28  24 NE12G17   30.17F
TEKAMAH        SUNNY     72  27  18 N8G17     30.13F
$$

NEZ050>053-065>068-078-088>093-272200-
SOUTHEAST NEBRASKA

CITY           SKY/WX    TMP DP  RH WIND       PRES   REMARKS
LINCOLN        SUNNY     68  33  27 NE14      30.15F
OMAHA EPPLEY   MOSUNNY   70  31  23 NE16G26   30.13F
FALLS CITY     SUNNY     68  34  28 E15       30.10F
NEBRASKA CITY  SUNNY     67  23  19 E14       30.12F
PLATTSMOUTH    SUNNY     68  24  19 NE9       30.13F
$$

NEZ044-045-051>053-067-272200-
OMAHA AREA

CITY           SKY/WX    TMP DP  RH WIND       PRES   REMARKS
OMAHA EPPLEY   MOSUNNY   70  31  23 NE16G26   30.13F
BLAIR          SUNNY     67  27  22 N5        30.13F
OFFUTT AFB     SUNNY     69  32  25 NE7       30.12F
PLATTSMOUTH    SUNNY     68  24  19 NE9       30.13F
WAHOO          FAIR      68  26  20 NE9       30.15S
$$



USA.gov is the U.S. government's official web portal to all federal, state and local government web resources and services.